Theta_e
308 307 307 307 307 307 307 307 307 307 307 307 308 307 307 307 307 307 307 308 307 307 307 307 307 308 308 308 308 310 311 312 313 313 314 315 313 313 314 314 315 314 315 317 313 313 314 313 313 313 316 316 316 317 314 321 324 323 329 324 322 327 327 328 328 325 320 325 328 321 316 315 317 319 313 311 313 316 315 317 318 314 313 314 311 309 310 312
308 308 307 307 307 307 307 307 307 307 307 307 308 308 308 308 308 308 308 308 308 308 308 307 308 308 308 309 309 311 313 314 314 314 316 316 315 315 315 314 315 316 315 316 313 313 316 316 312 314 319 316 316 317 317 319 320 328 330 321 325 330 327 326 328 326 320 319 322 321 317 314 316 316 312 314 318 317 316 315 316 316 316 313 309 308 310 311
308 308 308 308 308 308 308 308 308 308 308 308 308 308 308 308 309 309 308 309 308 309 308 308 309 308 309 309 310 312 314 313 314 316 317 317 317 316 316 315 315 316 316 315 314 313 315 316 311 317 321 316 320 320 320 319 319 329 326 323 333 331 324 324 325 324 320 317 319 320 317 314 316 315 312 315 317 318 316 315 315 317 318 316 315 310 308 310
309 309 309 309 309 309 309 308 308 308 308 309 309 309 309 309 309 309 309 309 309 310 309 309 309 309 309 310 311 312 313 313 312 315 317 316 316 315 316 316 315 316 317 314 314 314 314 313 311 319 320 318 322 320 322 323 321 324 322 328 336 326 321 324 324 323 320 316 316 317 315 315 316 313 312 314 316 317 316 316 316 316 318 317 321 315 306 307
309 309 309 309 309 309 309 309 309 309 309 309 309 309 309 309 310 310 310 310 310 310 310 310 310 310 309 310 312 312 313 315 314 316 317 316 316 315 316 316 316 317 316 314 314 314 313 312 313 319 319 318 321 320 326 325 320 321 321 326 330 322 319 321 323 323 319 316 316 316 316 316 314 312 314 314 315 316 316 319 318 316 319 316 317 317 307 308
309 309 308 308 308 309 309 309 309 309 309 309 309 309 309 309 309 309 309 310 310 310 311 311 310 311 310 311 314 313 314 315 314 315 317 316 315 315 316 316 317 317 316 314 313 313 313 313 314 319 319 317 320 320 323 321 316 320 322 323 325 321 319 320 321 322 318 315 317 317 315 314 313 314 316 315 315 315 315 317 319 316 314 310 311 317 319 319
309 308 308 308 308 309 309 310 310 309 309 309 309 309 309 309 308 308 309 309 309 309 310 310 311 311 310 311 315 316 315 315 314 315 315 314 315 315 316 317 317 316 315 313 313 314 316 316 316 319 319 317 319 320 320 318 316 319 322 322 322 320 320 319 318 319 318 317 317 315 313 314 315 315 314 314 314 314 313 313 315 312 306 306 313 322 327 323
310 309 309 309 309 309 310 311 310 310 309 309 309 309 309 309 309 309 308 308 308 308 308 309 309 308 310 312 314 318 317 316 314 314 314 315 316 315 316 317 317 316 314 312 313 314 315 316 316 316 318 318 318 319 317 316 318 320 322 322 322 320 321 321 317 317 319 318 314 311 314 316 314 313 312 313 313 312 313 312 313 311 309 310 314 318 320 320
311 311 311 310 310 311 311 311 310 310 310 310 310 310 310 310 310 310 309 310 309 309 308 308 307 308 312 313 312 315 316 315 314 314 315 316 317 316 316 317 317 315 312 312 312 311 313 316 316 315 318 318 316 316 316 315 319 323 321 322 322 319 319 319 316 316 317 317 312 311 316 315 312 313 312 313 313 312 312 313 313 312 314 313 311 313 315 318
312 312 312 312 312 312 311 310 310 311 311 311 311 311 311 311 311 311 311 311 310 310 309 309 307 307 311 312 312 314 315 315 316 316 316 316 317 316 315 316 316 314 311 311 311 310 312 315 314 314 315 316 314 314 316 316 316 320 320 319 319 316 315 314 314 315 314 315 313 312 315 314 312 312 313 314 316 314 313 315 315 313 315 314 311 310 310 314
313 313 313 313 313 312 311 310 310 310 310 310 310 310 310 310 310 311 311 311 311 311 310 310 308 308 310 312 314 314 313 315 316 315 315 315 315 315 315 315 314 313 311 310 310 310 311 311 310 311 313 314 314 313 315 315 313 314 314 316 317 314 314 312 312 314 312 313 313 312 312 313 312 312 313 313 314 313 313 316 315 314 314 313 311 309 309 310
314 314 314 313 312 311 310 310 310 310 310 309 308 309 308 309 309 309 310 311 311 311 310 310 308 308 310 312 315 313 311 313 314 314 314 314 315 314 313 313 313 312 311 309 309 310 310 310 311 313 315 313 314 314 313 313 312 312 312 314 316 315 313 312 312 314 312 313 314 311 311 314 314 314 316 312 312 312 312 315 314 313 313 312 312 309 309 307
314 314 314 313 312 311 312 314 314 312 310 309 309 308 307 308 308 308 308 309 311 310 310 310 309 309 309 312 313 311 311 311 312 313 313 314 313 313 313 312 311 311 311 309 309 310 310 310 312 315 314 313 316 313 311 313 313 313 313 313 314 314 314 312 312 312 310 313 315 311 311 316 316 316 316 313 311 311 312 314 314 313 312 312 312 311 310 307
314 314 314 314 314 314 316 317 317 313 311 314 314 311 308 307 308 308 308 308 309 309 309 309 309 309 310 313 311 310 311 311 311 312 312 313 312 312 312 311 311 311 311 310 311 312 311 310 311 312 311 314 316 311 312 318 319 316 312 314 315 314 316 315 312 311 310 312 314 311 311 313 313 314 314 312 311 311 313 314 314 314 312 312 312 312 312 310
314 314 314 315 315 317 317 318 318 314 313 318 317 311 309 308 308 308 307 308 308 309 310 310 310 310 312 313 311 311 312 312 313 312 312 313 312 312 312 311 311 311 312 311 312 313 313 311 313 315 314 312 312 314 318 321 327 323 313 317 320 315 317 315 312 312 312 312 310 311 313 313 312 313 312 310 311 312 313 314 315 315 312 311 312 311 312 311
314 315 315 316 316 317 317 318 318 316 316 318 315 310 309 309 310 309 309 309 308 309 310 311 311 310 312 314 311 312 312 312 314 313 313 312 312 312 311 311 311 311 312 311 312 312 312 313 313 314 314 312 313 320 322 319 327 326 314 316 320 316 314 313 313 315 313 311 310 311 313 313 313 315 313 312 311 312 313 314 314 314 312 310 310 310 310 311
315 315 315 316 316 317 317 318 318 318 319 318 312 309 310 311 312 311 310 309 310 311 310 313 311 309 312 313 312 313 311 311 312 313 314 312 312 312 311 311 309 309 310 310 311 311 310 311 311 313 316 315 317 320 319 317 320 322 316 316 318 316 313 313 315 316 311 311 312 312 311 311 311 313 313 312 312 311 311 311 311 311 310 309 309 309 309 309
315 315 315 316 316 317 317 318 318 318 320 316 310 310 312 312 312 311 311 311 311 311 311 311 311 311 315 314 313 314 312 311 312 312 313 312 311 311 312 310 307 308 310 311 311 310 311 313 314 317 317 315 315 315 317 317 316 317 316 315 315 314 313 313 314 313 313 311 312 313 311 310 310 310 310 310 310 311 310 310 309 309 309 309 309 309 309 309
315 315 315 315 316 316 316 317 318 319 319 315 312 311 312 314 313 312 312 312 313 313 313 313 313 315 318 315 312 311 312 312 313 312 312 312 311 310 311 309 310 312 312 313 313 311 314 317 316 317 315 314 314 313 314 315 314 314 313 312 313 312 312 312 311 311 312 311 310 311 310 309 310 309 310 309 309 310 310 309 309 309 309 309 309 309 309 309
316 315 315 315 315 315 316 316 317 319 317 314 313 311 314 317 316 316 314 314 315 314 316 317 314 317 317 313 311 312 314 313 313 313 311 312 311 311 311 309 313 315 313 318 318 312 313 316 316 316 315 314 313 312 312 312 312 311 311 312 312 312 311 310 310 310 310 309 310 311 310 310 310 309 310 309 309 309 309 309 310 310 310 310 310 310 310 309
316 317 316 315 315 315 316 316 317 319 317 314 313 311 313 313 312 316 314 314 313 309 314 317 311 314 314 312 311 312 314 314 313 312 311 312 311 313 314 311 314 314 314 320 317 311 311 314 315 315 314 313 312 312 311 311 311 311 312 313 312 312 311 310 311 310 309 309 311 312 311 310 309 310 310 310 309 310 310 310 310 310 311 311 311 311 310 310
319 320 318 316 316 316 316 316 317 318 318 315 312 310 309 307 308 310 308 312 312 305 309 312 308 310 311 310 311 311 314 315 314 313 311 311 311 315 316 314 317 317 316 316 314 313 313 313 313 312 312 312 312 312 311 312 312 313 313 312 313 311 311 311 311 311 311 311 313 314 312 309 310 311 310 310 310 310 311 310 311 311 311 311 311 311 311 311
321 322 321 320 319 317 316 317 317 318 318 315 313 309 307 307 307 307 307 313 315 310 312 313 310 310 310 309 310 310 312 313 313 314 312 311 313 316 315 315 316 317 316 315 314 315 316 318 315 311 311 312 312 312 311 312 312 313 313 312 313 311 312 313 312 315 313 310 312 313 311 310 310 310 310 310 310 310 311 310 311 311 311 311 311 312 311 311
323 323 323 323 322 319 317 317 318 319 318 314 313 311 308 307 307 307 310 314 316 315 314 311 309 311 311 309 308 311 312 312 313 313 312 313 315 314 314 316 316 316 315 313 314 314 315 320 316 311 311 311 312 312 312 313 312 313 313 312 313 312 312 312 313 315 314 315 317 313 310 313 315 314 314 312 309 309 310 309 310 310 310 311 311 311 312 311
325 324 325 324 324 322 318 318 318 318 318 314 314 313 309 308 307 307 311 316 320 319 312 308 308 311 310 308 308 311 312 312 314 312 310 312 314 313 313 314 315 317 314 312 314 313 313 316 314 313 314 312 312 313 314 315 313 313 314 313 312 312 313 313 314 313 314 320 319 313 313 316 317 317 320 320 315 314 312 310 313 313 311 310 310 312 311 311
326 325 325 324 324 324 321 319 318 318 319 315 315 315 311 308 307 307 310 318 326 323 314 310 311 311 308 308 309 311 314 314 310 309 309 310 310 312 313 312 312 314 315 314 313 311 313 314 312 314 316 315 313 313 315 314 312 314 317 318 314 312 313 314 314 313 317 321 314 312 319 317 315 316 320 322 319 319 318 315 316 315 311 310 312 312 311 311
326 325 326 324 324 324 322 320 318 318 321 318 316 316 312 308 307 306 312 323 328 323 315 312 310 309 309 308 308 310 316 315 308 308 310 309 309 310 312 312 311 311 311 313 314 313 314 313 312 312 312 315 314 313 315 312 313 316 316 319 320 316 315 314 313 313 318 319 314 314 317 316 316 315 316 317 315 318 319 316 314 311 310 312 312 311 311 311
324 324 325 324 323 324 322 321 319 318 320 319 317 317 312 309 308 309 318 332 331 319 315 313 308 309 310 307 307 310 310 309 309 309 306 306 309 309 312 313 313 313 311 312 314 314 314 314 315 314 312 316 316 315 317 313 313 317 313 315 318 317 315 314 315 316 315 315 316 315 314 318 321 316 316 315 314 318 318 315 312 311 313 314 313 312 311 310
322 322 323 323 322 322 321 321 320 319 319 318 318 318 313 309 308 312 324 331 328 317 313 312 309 310 311 309 310 312 309 308 310 309 307 308 308 308 312 314 313 313 312 312 313 312 313 313 315 317 316 316 316 317 319 316 315 315 312 314 316 317 317 316 317 318 318 317 317 316 314 318 320 317 319 316 315 321 319 314 313 312 314 314 313 314 310 310
322 322 323 323 321 320 319 319 320 320 320 318 318 318 313 312 312 319 329 328 324 320 314 311 311 310 311 312 313 312 310 311 311 310 311 310 309 310 310 309 311 315 314 312 313 312 310 309 310 315 316 316 316 315 313 314 314 312 314 318 318 319 319 319 320 319 319 318 317 318 316 316 318 319 322 321 318 321 318 318 320 319 318 319 318 314 310 309
321 321 322 322 321 320 319 319 321 321 319 318 319 318 317 320 322 328 333 324 321 323 314 312 314 313 314 314 314 314 312 312 311 311 312 311 312 314 310 309 313 318 318 314 314 313 310 309 312 316 317 315 315 313 309 310 311 312 319 321 318 320 319 320 322 318 318 320 319 318 315 315 319 317 318 320 319 318 316 318 323 323 322 325 323 315 309 307
318 319 320 320 320 320 320 320 320 321 320 317 318 321 324 325 324 328 330 323 325 326 315 313 315 316 317 314 316 317 312 312 311 311 315 315 315 315 314 316 316 318 321 320 318 317 315 314 313 314 314 312 313 314 312 311 310 311 318 317 314 320 319 319 322 318 318 320 316 313 312 314 316 315 314 316 315 315 314 314 317 319 319 319 318 314 308 307
314 316 318 319 319 319 320 320 320 320 319 317 319 325 328 326 325 329 328 325 327 323 315 316 315 315 316 317 324 322 312 314 314 311 315 314 313 317 319 318 316 315 317 318 318 319 321 318 312 309 312 313 313 314 314 315 312 311 314 316 316 319 319 320 323 319 319 321 314 310 313 315 315 317 318 315 313 315 316 315 315 314 314 314 313 312 311 311
311 312 314 316 317 318 319 319 320 319 317 317 321 326 326 325 325 327 328 328 328 324 320 319 317 316 317 320 328 324 316 322 319 314 316 314 315 323 325 317 312 313 314 314 317 318 320 321 317 314 315 314 311 312 317 319 314 311 314 317 317 321 324 324 324 322 321 322 313 308 314 319 318 319 320 318 316 317 317 316 313 312 313 313 313 315 317 319
309 309 311 313 314 317 318 318 319 318 317 318 322 325 326 326 324 324 328 329 328 327 322 320 319 321 321 321 324 320 318 323 320 315 317 317 319 325 327 321 313 312 314 314 318 318 317 321 321 315 313 312 311 313 319 320 315 312 315 317 315 320 323 319 321 323 321 320 314 311 317 321 317 315 316 316 314 314 315 315 314 314 313 313 317 320 320 319
307 308 308 311 313 316 318 318 318 317 317 319 322 325 324 324 325 327 326 323 324 325 323 322 322 323 326 325 323 318 314 316 317 315 315 316 319 320 322 323 317 311 311 316 320 318 316 320 318 311 310 310 311 313 314 316 316 313 314 317 315 316 317 316 319 322 318 318 318 317 319 318 317 317 316 317 318 315 318 320 317 315 314 316 320 319 317 317
305 306 307 309 311 314 316 318 318 316 317 320 322 325 324 322 325 328 325 320 320 322 323 324 324 325 328 327 325 319 314 316 315 315 317 318 318 317 319 321 317 311 311 318 322 320 317 319 316 313 313 311 308 311 313 313 314 315 317 317 313 313 315 316 318 320 318 318 318 318 319 317 319 320 317 320 324 320 320 321 318 318 320 319 318 315 313 313
302 305 308 309 310 312 315 317 317 315 317 320 323 324 323 322 322 325 325 320 319 320 322 324 324 326 328 327 326 322 317 319 318 316 322 322 319 319 321 320 315 311 310 313 320 321 317 318 318 316 315 313 309 312 315 312 308 312 316 314 313 316 317 316 318 319 318 318 319 319 319 317 318 319 316 318 320 318 317 319 319 321 321 318 316 314 312 311
303 308 311 312 311 311 313 316 315 315 318 321 323 324 323 322 322 324 325 320 319 321 323 325 324 324 327 325 325 324 321 321 320 318 322 323 320 319 320 318 314 312 312 311 316 319 317 317 320 317 314 315 314 315 318 316 310 309 311 311 312 315 316 316 318 319 318 318 320 320 319 318 317 316 317 318 317 316 316 317 319 321 319 316 315 315 314 313
305 311 313 313 313 312 313 315 315 316 320 322 322 322 321 321 321 324 324 319 319 321 321 325 325 323 325 324 323 324 324 323 322 321 322 323 322 320 320 318 315 316 315 313 315 317 317 317 318 317 316 316 317 317 319 319 316 312 312 312 312 312 315 316 315 316 317 317 319 320 319 321 323 320 317 317 316 313 313 316 320 321 316 313 313 313 312 311
307 311 313 313 314 314 314 316 316 317 320 321 320 320 319 319 319 321 320 317 318 320 319 322 324 322 321 322 322 322 322 324 325 323 322 324 323 322 321 318 317 318 316 316 318 318 319 319 318 318 319 318 318 320 320 321 322 319 315 314 313 313 316 317 316 317 316 315 317 319 318 321 330 328 319 316 316 313 314 317 317 316 313 313 315 314 311 306
307 312 313 313 314 314 315 317 317 317 318 319 320 319 318 319 319 319 319 317 317 318 318 319 321 320 319 320 321 321 322 324 324 322 322 323 321 321 320 318 317 318 317 319 322 321 320 321 319 319 320 319 318 319 319 319 319 318 316 316 315 314 314 317 318 318 317 316 317 318 318 321 327 325 318 316 316 313 314 315 314 314 315 316 315 310 304 300
308 310 311 312 314 315 316 319 318 317 318 318 318 318 318 319 319 318 318 317 317 317 318 318 318 318 319 319 319 321 322 322 321 321 322 321 320 320 320 319 317 316 317 320 322 318 316 318 319 318 319 319 319 319 317 314 314 315 316 316 315 314 314 316 317 317 318 318 318 320 320 322 325 321 315 316 316 313 314 313 312 312 311 309 305 300 297 296
304 305 307 309 313 314 316 319 319 318 318 317 317 317 317 317 317 317 317 317 318 318 317 318 318 318 319 319 318 319 320 320 319 319 320 319 320 319 318 317 315 314 316 317 318 316 314 317 321 319 318 318 318 317 314 312 314 316 316 316 315 314 314 315 315 316 317 316 317 319 318 320 326 324 317 316 316 315 314 310 305 302 301 299 297 295 295 294
301 304 305 305 307 310 314 316 316 317 317 317 318 317 317 317 317 317 317 316 317 317 317 317 316 314 314 315 316 316 316 317 317 318 318 319 319 315 312 313 314 314 314 312 313 315 315 317 319 319 318 318 315 314 315 316 315 313 314 316 316 315 315 315 316 316 317 316 317 318 317 317 322 323 319 316 315 313 310 303 297 296 296 295 294 294 294 293
302 305 305 305 306 308 310 311 312 315 316 316 317 316 316 317 317 316 317 316 316 316 316 315 313 311 311 313 314 315 315 315 315 316 316 317 318 313 308 309 311 310 310 308 308 312 313 315 317 317 316 317 315 314 316 318 316 313 314 316 315 315 314 314 315 316 317 317 316 316 317 316 317 319 317 313 310 307 301 296 295 294 294 293 293 293 293 293
302 304 304 307 308 307 308 309 310 312 313 314 315 315 315 315 315 315 316 316 316 315 314 314 313 313 314 314 315 315 316 315 314 314 314 313 315 312 308 309 309 307 308 306 306 310 312 314 315 315 315 316 315 315 315 315 315 314 315 315 315 314 313 313 314 314 314 316 316 316 317 315 315 316 312 305 302 299 296 293 293 293 292 292 292 292 293 292
300 302 302 303 304 305 306 306 305 306 308 309 311 313 313 313 312 313 314 314 314 314 314 313 312 313 314 314 314 314 315 315 314 314 313 311 311 311 311 310 306 304 305 305 305 309 311 311 312 313 313 314 313 312 312 312 312 313 313 314 314 314 314 314 314 313 313 314 314 314 315 315 314 311 304 298 297 297 294 292 292 292 292 292 292 292 292 292
297 299 300 299 299 301 302 301 300 302 304 306 308 310 311 311 311 310 311 312 312 312 313 313 313 312 311 311 311 312 313 313 313 313 311 309 309 309 310 309 305 302 302 302 304 308 308 309 310 310 310 309 308 308 309 309 310 310 311 313 313 312 312 313 313 313 313 313 313 312 313 314 309 302 298 295 294 294 293 292 292 292 292 292 292 292 292 292
297 298 298 297 297 297 298 299 299 300 301 303 306 308 308 310 310 309 309 310 311 311 312 313 311 308 307 308 308 309 309 308 309 309 306 305 307 306 305 306 305 302 300 300 303 307 308 308 308 307 305 305 305 306 307 307 308 308 309 310 310 310 310 310 311 312 312 313 312 311 313 312 302 295 295 295 293 293 293 292 291 291 291 291 291 292 292 292
295 296 296 296 295 297 297 297 298 299 300 302 304 306 307 308 306 304 306 306 306 307 306 305 304 303 303 305 305 305 304 301 302 302 300 301 303 302 301 301 301 300 300 301 303 305 305 305 304 303 303 303 303 304 304 304 305 306 306 307 307 308 308 307 308 310 310 310 310 311 312 307 297 293 294 294 293 293 293 292 292 291 291 291 291 291 291 292
293 294 296 295 294 295 296 296 296 298 299 300 302 303 303 303 299 300 304 303 300 300 299 297 298 299 300 302 302 301 299 298 298 298 298 299 299 298 298 298 298 299 299 299 301 301 301 301 301 301 301 302 301 301 301 302 302 301 302 304 305 304 304 305 306 306 304 304 307 308 305 299 294 293 293 292 293 293 292 293 293 292 291 291 291 291 291 291
Wind_Speed
9 9 10 10 10 10 10 10 10 10 10 10 10 10 11 11 11 11 12 12 12 13 13 13 14 14 14 12 10 10 10 10 10 7 7 11 10 9 10 8 6 8 12 9 7 7 5 3 3 4 4 3 3 1 1 2 2 3 3 2 2 3 4 6 7 7 4 4 6 4 1 2 7 5 2 1 0 4 5 4 5 6 8 9 8 5 4 5
10 10 10 10 11 11 11 11 10 10 10 10 10 10 11 11 11 11 12 12 12 13 13 14 15 15 15 13 11 11 12 12 9 8 8 7 7 8 10 10 8 8 11 10 9 9 6 2 4 6 4 2 2 2 1 1 2 3 3 2 4 6 6 6 8 6 4 4 5 6 3 3 7 4 1 3 6 5 7 7 4 8 12 12 11 7 6 11
11 11 11 11 12 12 11 11 12 11 11 11 11 11 11 11 11 12 12 12 12 13 13 14 14 15 15 14 11 12 13 9 6 5 2 4 2 4 8 11 9 8 12 9 8 9 4 4 9 7 4 1 1 2 1 0 2 2 3 2 6 7 6 5 7 8 7 3 4 8 4 2 6 4 1 3 7 8 10 9 5 9 13 13 10 8 10 14
11 12 12 12 12 12 12 12 12 12 12 12 11 11 11 11 11 11 12 12 13 13 14 14 14 15 15 12 10 11 11 6 2 3 2 4 4 3 5 10 10 9 12 8 4 7 3 4 9 6 4 0 3 3 0 2 2 1 4 5 7 4 4 7 8 9 8 3 4 5 4 5 6 2 2 2 5 10 11 9 10 13 13 12 9 8 12 14
12 12 12 12 12 12 12 11 12 12 12 12 12 12 12 12 11 11 12 12 13 13 14 14 14 14 14 11 8 10 9 5 2 3 0 5 6 6 4 9 11 10 12 9 4 5 4 7 7 5 3 1 2 2 2 4 3 2 5 7 6 5 4 7 7 8 5 3 4 3 5 7 4 1 5 5 4 11 11 7 12 13 12 11 8 8 9 10
13 13 13 12 12 12 11 11 12 12 12 12 12 12 12 12 11 12 12 12 12 12 13 13 13 13 12 10 7 6 4 1 5 3 5 8 7 6 3 8 11 11 12 9 5 7 5 6 4 2 2 1 2 4 4 3 3 3 5 5 6 6 6 6 3 5 5 3 4 4 5 4 4 8 5 9 11 17 15 7 9 11 11 10 5 7 8 10
14 14 13 12 12 12 11 12 12 12 12 12 12 12 12 12 12 12 12 13 12 12 13 12 13 12 11 8 5 4 3 5 11 9 10 10 8 6 2 7 11 12 13 10 7 7 5 5 3 4 3 1 3 5 4 1 1 3 5 5 6 6 8 8 3 3 3 6 8 2 6 7 8 8 1 7 13 19 18 10 8 10 10 9 5 7 10 12
13 13 13 12 12 12 10 11 13 12 12 11 12 12 12 12 12 13 13 14 13 13 14 13 12 11 10 6 2 3 1 9 16 13 11 9 7 5 4 7 11 13 13 11 9 8 5 6 5 4 2 3 4 4 3 1 1 5 7 5 3 4 7 9 6 5 6 8 6 1 8 15 12 5 6 12 16 19 17 12 10 10 9 9 9 11 10 11
12 13 13 12 12 11 11 12 13 13 12 12 12 12 13 13 13 13 13 14 14 14 14 14 13 10 8 2 2 2 5 10 12 10 8 7 7 5 6 8 12 14 13 11 11 10 6 5 6 5 4 3 4 4 3 3 4 7 8 5 4 6 7 7 7 7 7 6 4 3 12 17 8 3 10 16 19 18 12 11 9 6 9 9 10 11 10 11
12 12 13 13 12 12 12 12 13 13 12 12 13 14 14 14 14 14 14 14 14 14 14 14 12 9 6 1 1 4 8 8 7 8 8 8 9 7 8 9 12 15 13 9 11 12 7 7 6 5 4 2 3 3 3 4 4 4 4 6 7 8 8 5 5 7 5 5 7 8 14 16 4 1 8 13 14 10 6 9 7 3 9 10 9 10 9 11
11 12 12 12 12 12 12 13 14 14 14 14 15 15 15 16 16 16 15 15 14 13 14 12 11 8 4 2 3 7 7 7 8 9 10 10 10 9 9 10 12 16 14 9 12 15 11 8 7 5 2 2 3 2 3 5 1 1 1 7 9 7 9 6 6 8 4 4 9 12 11 12 3 1 12 18 10 2 5 11 9 7 10 9 9 9 7 10
11 11 11 11 12 12 12 14 14 15 15 15 15 15 16 16 16 17 16 16 15 13 12 11 9 6 3 1 6 13 14 12 12 12 12 12 11 9 9 11 12 14 14 9 9 15 14 9 8 6 4 3 1 1 4 3 0 2 3 5 11 7 10 10 6 4 6 4 6 9 5 8 5 9 18 19 7 2 5 10 11 11 11 9 9 8 7 10
10 11 11 11 12 12 12 14 15 16 15 15 16 16 16 16 17 17 17 16 15 13 11 9 7 4 1 3 7 13 18 18 18 17 16 15 12 10 10 11 11 11 12 10 7 8 12 12 10 7 4 4 2 2 1 2 2 4 2 0 8 7 9 7 1 2 2 4 6 6 4 6 8 15 20 15 4 3 7 9 11 11 10 10 8 7 8 10
10 10 11 11 12 12 13 15 17 17 15 17 19 18 18 17 18 18 17 17 15 12 9 5 3 3 3 6 9 8 13 16 18 20 19 17 13 8 8 9 9 10 10 9 5 4 8 12 8 3 1 3 3 3 3 5 3 4 2 1 3 3 7 5 2 2 3 3 7 5 5 8 10 15 19 12 3 5 8 10 11 11 9 9 9 8 9 10
10 10 10 11 11 12 15 17 19 17 17 20 21 19 19 18 18 18 17 15 12 8 5 3 5 5 2 8 10 8 10 13 15 18 19 18 13 7 6 8 8 8 8 7 6 4 7 9 6 2 2 1 1 2 3 4 3 2 2 4 3 3 6 9 5 5 7 5 3 6 5 7 11 15 17 10 3 4 7 10 10 12 11 9 10 9 9 10
9 9 9 10 11 13 15 18 20 18 19 22 21 20 18 17 15 14 13 9 6 5 3 4 7 6 1 5 6 7 9 10 11 13 14 17 14 8 7 9 7 7 8 6 6 6 7 6 2 2 1 2 1 2 2 4 4 3 2 5 6 5 5 7 8 7 8 3 1 7 7 6 8 12 13 8 5 4 6 9 11 13 12 11 10 9 9 11
8 8 9 10 11 13 14 18 20 19 21 22 21 20 14 11 11 9 6 1 4 6 6 4 7 5 2 5 6 7 7 7 9 8 9 12 12 10 10 8 5 8 8 5 6 5 3 2 1 1 1 1 2 4 2 2 4 3 2 5 5 6 6 5 8 6 2 5 6 6 8 11 11 11 13 11 9 8 9 11 12 13 13 13 11 9 11 11
8 8 9 10 11 13 14 18 19 20 22 22 22 18 8 6 7 6 6 10 11 8 5 3 5 2 5 6 6 5 2 3 4 3 5 7 9 12 10 6 6 9 7 4 2 2 1 2 2 1 1 1 1 4 3 6 7 7 6 6 4 4 6 6 7 5 3 5 6 4 9 15 15 12 14 16 11 11 16 15 13 14 14 14 13 12 13 14
9 9 9 10 11 13 14 17 19 20 22 22 21 12 3 5 5 6 8 8 7 4 1 2 4 2 4 7 6 4 1 1 2 2 5 9 11 11 8 7 7 7 5 1 1 2 1 2 3 2 2 6 8 9 11 13 11 10 8 5 6 6 7 8 11 8 4 8 7 10 17 16 15 14 13 17 13 10 17 18 14 14 13 13 13 13 14 15
9 10 10 10 12 13 15 17 18 20 20 22 20 9 2 5 3 2 4 2 3 4 2 5 8 4 5 5 2 2 2 2 2 3 8 11 14 11 6 4 6 5 3 4 3 1 3 3 4 6 10 14 14 12 15 14 7 5 3 5 7 8 9 9 12 10 2 4 8 11 20 18 15 15 12 15 15 11 15 19 19 16 13 13 13 15 17 17
10 11 11 12 12 14 15 16 17 18 17 18 18 7 2 2 2 3 5 5 9 11 8 10 10 8 12 8 2 3 0 1 0 4 9 11 13 10 1 2 5 1 2 4 2 1 2 6 8 12 15 13 8 9 11 9 4 4 4 7 7 7 12 12 11 13 2 1 7 8 18 20 13 14 13 13 16 16 17 17 18 20 18 14 13 17 19 16
12 12 13 13 13 14 14 16 17 16 15 15 14 7 3 1 1 3 1 4 10 9 9 12 9 9 17 15 6 2 1 3 2 1 9 9 6 5 2 4 5 4 2 4 1 1 2 7 11 14 11 4 1 4 5 5 6 7 4 5 7 5 9 11 8 10 3 1 7 7 15 18 11 14 16 16 17 17 17 13 14 20 19 17 16 16 16 15
12 12 14 14 14 15 14 15 16 14 13 12 11 6 1 2 2 2 1 2 8 6 6 9 7 7 12 13 8 5 3 6 5 4 9 9 2 3 4 5 5 3 4 6 7 6 5 7 12 14 8 4 5 3 5 3 5 6 5 5 8 4 5 8 4 5 4 3 7 9 15 15 10 14 15 18 19 15 14 14 13 15 17 21 20 14 12 14
13 12 13 13 15 15 14 15 13 10 12 9 8 6 4 4 1 1 1 2 5 6 6 6 4 5 6 6 4 7 5 5 3 5 11 12 4 2 4 5 5 3 6 11 12 11 11 8 6 7 7 9 9 4 4 4 6 7 8 7 10 10 9 10 5 7 6 5 5 7 14 13 6 9 10 10 11 10 11 13 13 14 19 21 17 13 14 13
14 13 12 12 13 14 14 14 8 8 11 6 5 8 8 5 2 1 2 2 4 6 5 3 2 3 4 3 5 7 3 3 4 4 10 12 6 3 2 2 4 5 9 10 10 11 12 6 3 4 5 7 7 7 6 7 8 8 7 11 16 15 11 10 7 7 6 5 4 4 8 11 2 6 7 6 3 6 8 8 14 18 18 13 9 13 16 11
14 14 13 13 12 13 12 8 4 8 10 4 4 10 9 6 4 1 1 2 4 5 2 1 1 1 2 3 3 5 3 2 4 0 5 5 4 4 2 1 1 4 7 6 4 5 6 4 4 6 6 6 6 6 7 9 7 9 5 11 15 12 9 10 7 3 2 4 3 3 1 9 7 3 9 7 3 7 8 9 16 18 12 6 6 11 14 11
16 16 14 12 11 10 7 3 4 7 5 2 6 9 9 6 4 3 1 3 5 2 2 1 1 1 2 0 0 3 3 4 3 3 2 1 2 1 1 3 1 1 3 2 2 3 3 2 3 5 4 6 5 6 7 10 6 7 5 7 9 9 8 6 4 4 4 4 3 1 4 6 13 6 5 5 4 7 12 14 16 12 7 8 9 11 13 11
18 17 14 12 10 10 8 6 5 3 2 3 5 8 8 7 4 2 2 3 4 1 3 1 0 2 0 1 3 4 1 2 3 2 3 3 1 2 0 5 5 3 2 4 5 4 4 4 5 6 5 4 6 5 7 12 7 6 2 4 6 5 5 5 5 4 1 4 4 3 4 2 12 7 4 3 3 7 13 15 13 8 7 9 11 12 12 8
19 17 15 11 9 10 11 9 7 5 5 4 4 7 8 6 3 4 2 3 2 2 2 0 1 1 2 3 3 2 1 2 2 2 4 2 0 3 1 5 6 5 4 5 8 6 1 3 6 8 6 6 7 3 7 12 7 4 4 5 4 3 3 5 4 3 3 4 5 5 5 2 11 9 4 4 2 7 10 10 9 8 8 10 10 11 9 7
15 15 15 11 8 9 9 9 12 9 7 6 3 7 8 4 2 2 3 4 1 1 0 1 0 2 3 4 3 3 1 2 1 2 3 1 2 4 1 3 5 2 4 2 7 8 2 0 3 5 4 6 4 3 4 8 5 2 5 5 5 4 4 4 1 3 3 6 5 10 11 5 7 8 3 3 4 5 6 7 7 7 7 9 8 7 6 7
10 11 12 11 11 10 6 5 10 11 11 8 1 5 6 3 2 3 7 2 1 3 1 1 2 3 4 3 2 3 1 2 0 2 1 1 2 4 2 1 3 2 3 4 6 6 2 1 2 3 3 5 6 3 0 2 4 4 4 3 3 4 4 4 4 3 2 7 5 10 12 9 7 7 1 4 6 5 6 6 7 8 8 8 8 5 5 6
9 9 10 11 12 13 8 2 2 7 12 9 2 3 3 2 2 6 5 3 2 3 1 0 1 2 2 1 1 2 1 1 0 3 3 2 1 1 2 3 3 1 4 3 3 5 3 5 4 2 2 5 6 2 2 3 4 4 3 2 1 4 3 2 3 0 4 7 5 6 7 5 11 9 4 9 12 10 9 8 8 8 8 9 10 8 5 4
8 9 9 10 12 15 14 7 1 4 10 9 2 4 5 2 6 3 1 2 2 1 2 1 0 2 2 1 3 3 1 2 3 2 2 3 2 3 5 6 5 2 4 2 3 5 4 4 3 2 3 4 8 6 3 2 5 6 5 5 4 2 2 3 3 2 4 6 3 3 3 3 9 7 7 12 13 10 6 7 8 8 8 9 9 8 6 5
8 9 9 9 11 15 17 15 9 6 10 10 3 4 3 8 7 2 2 5 3 3 1 2 2 0 2 3 4 3 2 4 4 4 1 2 1 3 4 6 6 4 2 2 3 2 4 7 3 5 2 5 10 9 4 4 5 6 5 5 5 5 4 4 4 4 6 4 2 1 3 4 4 3 6 10 8 7 4 5 6 5 7 7 7 7 6 6
11 9 10 10 11 13 16 18 14 10 12 8 3 2 6 9 6 2 4 5 2 4 4 0 1 2 3 3 4 3 5 5 3 5 3 3 3 4 3 4 7 6 3 3 2 2 4 8 5 2 1 7 8 4 3 6 2 2 3 3 3 4 4 3 5 5 3 3 2 2 4 5 4 6 7 6 7 8 7 6 6 6 6 4 5 6 5 5
13 11 11 11 13 14 16 18 16 15 12 6 2 6 9 7 4 3 4 2 2 2 2 3 2 3 5 2 2 3 2 2 1 2 3 3 3 4 4 3 6 9 7 4 2 1 3 6 3 2 1 5 5 1 2 3 2 1 3 2 4 3 5 2 5 2 0 4 6 5 7 6 5 10 7 3 3 6 6 6 5 6 5 3 4 6 5 7
12 10 9 10 15 15 16 19 20 18 11 4 4 8 6 5 5 5 3 2 2 3 2 3 4 4 4 3 3 2 0 1 2 2 2 2 3 4 4 4 4 11 11 5 2 3 3 5 5 3 2 3 4 3 1 1 4 4 3 4 2 1 2 2 2 1 2 8 7 7 13 10 6 8 5 6 8 8 7 7 6 6 6 5 5 6 6 7
8 7 7 12 18 17 16 19 22 16 6 2 8 10 5 4 5 4 4 3 1 1 3 5 5 3 4 4 4 2 3 3 2 2 2 3 3 4 5 4 4 7 7 3 2 3 1 4 7 4 4 3 1 2 1 2 2 4 3 2 1 2 3 1 2 2 5 9 5 6 13 10 7 10 9 8 10 8 7 7 6 6 6 6 7 8 7 7
3 2 4 7 12 16 19 22 20 11 3 4 9 9 4 5 6 4 5 3 1 2 4 6 5 3 3 4 3 2 3 4 3 3 3 3 4 4 4 2 2 2 4 4 5 2 1 3 5 1 3 1 3 1 3 3 1 1 1 1 1 3 3 2 2 2 3 7 7 7 9 7 7 10 11 8 6 5 8 6 5 6 6 6 7 7 8 8
2 0 3 3 2 14 22 20 13 5 4 6 8 6 2 3 5 4 5 5 2 3 4 4 4 4 5 4 4 3 3 3 4 3 3 3 4 3 3 2 3 2 1 2 3 2 2 4 5 1 0 1 1 4 6 5 3 2 1 2 2 2 1 1 2 2 3 6 7 7 9 7 4 5 10 8 5 4 7 6 7 7 7 7 7 6 7 8
1 0 2 3 3 17 21 13 5 4 5 5 8 8 4 3 3 3 3 4 4 3 2 4 5 5 6 5 4 3 2 3 4 4 4 4 5 5 3 3 5 5 2 4 0 2 2 4 5 3 4 5 6 6 7 8 7 6 4 5 5 4 3 4 6 5 5 6 6 8 10 7 3 6 11 11 7 7 7 6 6 7 9 10 9 9 10 12
1 2 1 3 11 22 15 4 4 3 4 5 5 5 3 3 3 3 2 3 4 3 2 3 6 6 6 7 7 4 3 4 5 5 5 5 7 7 4 4 6 5 3 2 4 4 2 2 4 6 7 9 11 8 7 9 6 3 4 5 5 6 5 7 10 6 5 6 6 8 9 5 5 9 13 15 15 11 5 4 5 8 9 11 12 13 14 13
2 2 4 1 18 23 8 3 5 3 4 3 3 3 2 2 3 3 2 2 3 3 3 3 5 7 7 7 7 5 5 5 6 8 7 5 8 9 6 4 3 3 1 2 3 2 2 2 3 6 6 7 10 9 4 3 2 2 4 4 6 7 8 10 8 4 5 8 6 8 10 5 6 10 12 12 13 10 4 3 6 7 7 10 13 14 13 12
1 2 3 2 14 14 4 4 6 6 6 4 5 7 4 2 4 6 5 4 3 3 4 4 4 5 6 6 6 7 6 5 7 10 7 5 6 5 2 3 2 2 2 3 2 3 2 3 3 3 5 5 7 7 4 1 1 3 5 6 7 8 10 10 6 3 6 9 11 12 11 5 3 5 7 7 9 10 8 8 12 11 10 11 10 11 11 11
3 1 2 4 6 5 3 3 4 4 6 7 9 9 8 5 5 7 8 6 4 4 3 4 3 2 2 3 3 3 5 5 5 5 3 3 4 3 6 6 4 1 1 3 2 3 3 3 4 3 6 8 8 7 4 2 2 2 3 6 8 9 11 9 6 6 8 10 12 12 11 9 5 5 7 9 11 12 11 13 13 10 10 10 9 9 9 10
1 1 1 3 3 2 3 2 1 3 4 6 7 7 10 10 5 3 5 6 6 6 4 4 2 1 1 3 4 5 5 5 4 3 2 2 3 2 3 4 5 3 3 7 6 2 1 2 6 9 10 10 11 10 6 4 4 4 5 7 7 7 9 8 6 8 10 10 12 13 13 12 7 6 8 9 11 11 11 11 9 9 10 10 8 9 9 9
0 1 1 1 2 2 3 3 2 2 2 4 4 3 7 9 6 3 4 5 5 4 4 5 5 5 6 5 6 6 6 7 7 5 4 4 3 3 3 3 5 6 5 5 5 2 1 2 5 11 14 13 14 15 12 12 12 11 11 11 10 10 9 9 10 12 11 11 11 10 9 11 9 7 7 8 9 8 8 8 8 8 8 8 8 10 12 12
0 0 1 1 2 2 2 2 3 4 5 5 2 2 6 8 7 5 3 2 2 0 2 3 4 8 10 9 7 4 4 6 6 4 3 2 1 3 5 3 2 5 6 3 3 2 1 4 5 10 13 10 10 13 12 11 11 10 11 12 12 14 14 15 17 16 13 11 11 9 11 15 13 7 4 7 6 5 6 6 6 6 7 8 9 10 12 12
1 1 2 2 1 2 2 3 4 4 5 5 3 4 9 11 11 10 5 3 4 2 4 6 6 5 5 6 5 3 3 6 6 4 2 0 1 1 2 3 1 3 6 5 4 1 2 4 4 7 9 7 9 11 11 11 12 11 10 10 10 13 17 18 17 15 14 15 15 15 18 17 8 3 5 5 3 2 3 3 4 7 8 8 9 10 10 10
1 0 1 2 1 1 2 2 3 3 3 4 4 6 8 10 11 8 4 4 7 5 4 7 6 1 2 1 1 3 3 3 4 3 1 2 0 0 0 2 1 4 5 3 2 3 4 3 4 5 6 8 12 12 12 12 12 12 12 11 13 17 18 16 13 13 15 18 17 16 17 11 1 5 3 3 3 2 2 4 5 6 7 7 8 9 8 8
0 1 1 1 2 2 1 1 0 2 3 4 5 4 6 8 6 5 3 1 1 1 1 2 4 4 2 1 1 1 1 4 2 1 2 1 2 1 1 2 2 5 5 2 1 3 3 3 5 6 6 9 12 13 13 12 11 12 13 15 18 19 15 14 13 12 12 11 11 12 10 4 2 3 2 2 2 3 4 4 3 3 4 6 7 8 8 7
1 1 1 2 2 2 1 1 0 2 3 3 1 2 3 3 4 5 3 2 5 4 5 5 5 4 2 3 3 1 2 2 2 2 1 3 5 4 4 5 6 5 4 3 2 2 3 3 4 5 5 7 12 13 9 8 9 11 11 12 16 17 15 17 14 7 3 3 5 5 3 1 1 2 3 2 3 4 3 2 0 1 1 3 5 6 7 6
Wind_Direction
351 353 352 352 351 352 351 349 350 350 352 350 351 350 347 347 345 346 345 344 344 343 345 345 348 351 352 354 344 331 321 306 294 278 256 274 283 268 264 265 252 217 208 210 197 173 142 123 136 116 110 80 16 3 25 6 90 69 90 130 232 201 202 193 190 201 192 260 270 296 81 214 289 293 285 359 291 266 261 252 269 277 256 240 247 274 289 187
344 345 346 347 345 346 345 344 344 343 345 343 343 342 340 342 340 341 339 339 339 338 341 342 346 347 351 355 347 340 328 313 300 276 271 295 287 260 255 248 241 222 206 206 208 182 145 172 161 105 71 60 352 7 6 319 114 110 120 164 232 204 214 199 186 197 203 238 263 284 282 225 256 269 3 287 277 292 281 269 270 274 268 261 253 243 223 184
339 341 342 343 341 341 339 339 339 338 338 338 338 336 334 335 335 335 334 334 333 333 335 337 341 344 349 353 350 347 332 323 312 277 304 36 12 259 244 234 232 223 207 210 218 198 184 194 160 113 55 42 330 11 26 358 183 171 132 209 243 217 232 234 204 208 220 240 288 286 285 220 246 249 129 259 284 288 265 257 250 256 259 258 243 207 198 188
337 339 339 339 339 339 336 334 333 333 333 333 333 331 329 329 330 328 328 328 327 328 328 331 336 339 346 351 354 347 339 343 305 223 110 39 10 345 254 223 217 215 207 208 211 201 197 139 139 97 70 142 322 8 191 229 208 178 152 210 236 198 236 240 215 223 231 229 247 270 326 291 263 213 197 232 302 288 262 233 224 237 244 248 242 202 192 190
337 339 338 336 338 338 335 330 327 327 327 327 326 326 325 324 323 321 320 318 319 321 320 323 327 332 340 347 352 349 1 13 281 199 170 339 338 332 286 212 207 208 201 200 175 160 137 116 105 59 80 177 325 40 247 225 141 176 212 230 227 164 238 241 205 223 217 183 230 266 303 285 279 237 208 187 227 265 263 218 211 228 236 241 234 200 190 197
335 338 339 336 337 336 335 330 323 322 321 321 320 320 320 319 318 316 311 308 308 309 309 310 314 319 326 337 342 348 33 308 269 252 292 311 316 314 287 205 202 200 198 195 162 147 128 95 84 88 101 20 202 195 252 235 132 239 251 257 243 197 234 252 194 209 176 171 242 246 283 301 309 286 217 175 217 251 260 232 212 228 233 237 216 173 188 206
333 336 336 336 337 333 335 332 323 320 319 318 317 316 315 315 315 312 308 304 302 301 300 300 303 305 310 323 323 350 88 242 272 281 291 299 296 297 253 203 195 197 198 186 154 143 117 101 147 155 111 336 217 211 243 234 134 242 260 269 255 216 230 253 247 231 206 239 250 258 320 294 265 281 254 189 228 252 263 258 239 245 241 236 213 192 205 210
331 333 333 336 336 332 333 331 325 321 319 318 316 314 313 315 314 311 309 305 304 305 301 299 302 302 305 310 298 350 62 254 275 279 282 286 281 271 226 199 192 197 198 194 177 153 133 141 184 159 130 251 200 190 210 178 181 222 238 251 260 236 242 262 271 265 262 258 253 278 289 269 249 260 287 257 251 257 264 269 258 252 253 239 230 226 218 217
330 332 334 337 336 334 333 331 328 323 321 320 317 317 316 316 315 311 308 305 306 307 305 305 307 305 303 319 90 332 266 263 276 272 271 275 268 247 220 205 197 199 194 202 191 167 165 180 203 191 199 222 170 192 189 185 242 219 225 252 274 276 273 281 281 258 255 252 200 198 260 265 264 268 267 254 253 262 265 269 268 255 254 242 235 234 221 221
329 332 335 337 336 336 337 335 332 327 324 321 319 319 317 315 313 308 305 302 303 304 304 306 308 305 291 291 77 277 267 271 265 253 269 272 258 237 221 216 206 202 191 191 189 176 178 193 194 175 183 172 164 207 163 172 222 202 218 271 262 272 284 268 264 256 251 254 193 192 251 264 300 15 263 248 242 258 270 270 276 247 249 246 238 237 227 225
330 332 335 338 337 336 342 341 337 333 328 324 323 320 317 314 311 307 302 297 296 298 300 302 308 303 275 170 186 253 264 266 255 254 267 267 256 242 236 232 218 206 192 178 194 196 197 195 163 128 177 193 179 211 214 203 216 209 309 302 279 291 295 246 244 257 229 256 202 187 247 276 330 181 249 257 251 256 282 281 288 267 257 254 244 240 229 230
329 330 334 341 339 341 349 346 341 336 331 330 327 323 318 314 310 305 298 292 290 291 292 295 299 292 279 183 222 248 259 259 259 263 262 259 253 244 240 234 226 216 203 190 203 207 208 202 158 157 211 180 168 258 234 221 81 316 48 320 293 326 309 267 258 248 183 220 187 164 259 287 260 236 248 259 265 338 287 282 285 276 272 266 251 243 234 238
330 334 338 344 345 351 356 350 344 339 337 338 333 326 319 313 309 300 292 287 284 285 285 287 286 263 242 267 246 253 259 257 258 260 258 255 249 244 234 223 221 220 216 213 216 208 209 207 175 179 199 154 231 241 136 52 28 301 51 310 298 333 309 272 177 67 158 206 166 149 273 260 236 249 258 264 262 279 279 273 275 274 274 274 267 254 246 244
335 341 347 348 352 359 359 354 348 344 346 345 338 330 322 315 305 294 289 284 279 279 277 276 259 178 153 258 266 272 265 258 254 251 250 249 237 230 223 210 208 206 211 215 208 179 195 200 170 147 205 162 240 287 357 5 7 309 298 228 315 306 285 285 138 84 304 245 153 157 255 253 254 259 262 275 275 238 260 267 270 272 270 274 275 265 261 253
339 346 350 351 355 0 359 356 351 348 347 344 339 332 324 315 305 298 292 283 276 268 257 216 180 144 89 275 272 282 270 260 254 250 250 246 228 211 200 187 188 187 190 193 184 168 168 172 147 133 252 261 358 329 325 338 4 1 290 287 300 210 268 301 279 212 240 277 127 170 238 258 261 262 264 286 309 220 246 263 264 270 270 267 270 267 267 268
342 348 348 350 354 357 357 355 354 351 347 345 341 334 326 317 313 310 298 285 264 228 187 171 168 142 57 276 281 290 269 254 253 253 247 239 228 210 169 157 153 156 166 171 166 164 145 132 118 154 205 295 191 137 13 351 332 337 213 256 265 243 278 313 295 240 208 231 221 212 239 269 259 263 272 293 298 242 239 263 264 267 270 265 266 266 267 274
342 342 343 347 349 352 354 354 355 354 351 350 343 336 331 325 331 332 321 41 145 152 125 136 155 137 261 263 289 285 258 243 246 248 235 227 218 192 156 132 120 130 128 120 139 143 111 90 35 334 47 3 148 113 37 286 272 290 233 236 247 249 272 306 295 291 163 179 227 238 241 253 259 272 286 290 290 285 266 261 262 266 270 269 267 265 264 264
332 331 335 339 341 346 350 353 356 355 353 354 347 339 337 350 8 40 88 108 110 111 88 81 126 124 264 253 266 268 248 229 227 218 209 195 182 175 154 124 120 119 96 61 119 136 2 26 78 26 359 321 151 132 204 231 222 236 240 251 278 261 252 260 267 295 343 239 234 278 260 255 264 271 280 280 277 281 276 269 264 264 265 267 268 264 259 258
319 320 324 328 335 340 344 350 356 356 354 356 353 341 342 15 41 86 91 99 104 111 133 214 162 155 259 254 261 275 297 168 168 153 154 150 156 155 130 109 105 104 101 58 259 186 129 54 78 130 205 230 218 185 206 224 220 230 238 253 279 279 252 243 253 259 290 281 267 271 270 266 269 267 270 277 273 265 275 281 274 265 262 262 264 263 259 257
306 311 316 323 330 335 340 347 353 356 356 359 359 352 13 13 17 33 3 334 222 221 238 217 204 228 276 276 265 242 234 191 174 141 148 151 149 133 97 80 77 75 136 162 202 200 135 164 183 192 208 222 222 203 213 230 240 257 261 260 259 269 269 256 266 267 223 284 261 249 268 272 269 270 265 271 277 268 267 274 276 274 268 261 259 262 263 257
303 310 313 319 326 330 335 341 348 356 358 4 10 22 102 49 13 318 314 291 258 247 257 241 222 246 261 259 199 153 140 269 96 125 152 156 146 139 120 108 110 138 203 148 155 38 133 199 215 214 216 225 225 208 223 245 283 280 252 268 265 251 267 266 269 276 253 252 257 242 270 273 266 270 267 264 270 265 257 259 273 279 274 268 262 261 262 263
305 311 313 315 320 324 329 336 344 352 358 11 28 60 135 181 246 263 274 297 281 254 247 252 244 256 256 257 253 161 29 290 289 161 159 146 142 181 191 113 144 195 176 126 153 260 219 227 232 229 230 271 321 168 195 229 241 252 244 273 274 250 276 276 262 282 305 209 274 278 274 274 264 257 255 252 252 254 256 250 255 269 277 276 265 260 265 272
297 303 310 313 316 317 322 333 337 349 2 16 37 63 50 332 257 232 151 265 288 272 236 243 236 238 251 264 254 186 222 246 259 254 174 144 129 201 147 132 160 157 153 182 201 212 225 238 235 232 230 252 261 162 132 220 240 231 218 245 266 252 271 269 263 324 332 238 272 293 284 279 260 246 244 246 248 252 263 258 247 255 266 266 264 268 274 272
283 286 297 304 311 312 317 328 331 351 4 16 37 31 2 340 233 193 313 253 280 281 248 225 208 214 234 264 220 177 212 225 225 243 178 153 135 160 158 154 148 156 198 203 208 222 235 238 224 216 205 211 239 232 176 243 261 228 207 219 252 251 243 252 287 344 328 290 299 311 298 289 233 217 238 247 254 255 258 260 260 256 250 255 271 284 275 265
275 277 285 293 300 305 312 323 330 356 356 2 28 9 0 344 267 188 353 316 286 289 279 226 188 220 208 159 159 173 182 215 235 227 178 166 151 141 198 164 147 208 211 204 216 237 247 236 148 153 191 192 213 237 212 212 252 257 214 209 235 250 253 260 296 347 342 312 338 20 319 297 200 160 232 262 274 256 253 250 251 252 250 256 281 280 275 271
274 275 283 291 293 299 310 320 330 347 350 359 8 355 351 337 307 282 35 8 290 277 295 230 177 184 182 123 158 164 135 256 285 46 163 184 167 133 162 190 188 224 200 188 217 246 255 229 187 197 195 166 183 248 225 193 238 277 235 207 226 244 256 261 276 319 294 260 289 70 52 287 291 193 222 238 232 250 256 242 240 247 260 280 276 270 279 284
269 271 277 284 283 288 298 294 306 332 348 345 348 349 345 336 320 302 3 355 298 235 124 294 340 103 189 173 101 139 162 274 340 45 83 3 294 91 140 209 221 249 171 141 277 247 203 194 210 210 168 142 179 251 218 174 200 271 245 199 208 223 234 230 210 209 236 278 298 158 143 275 289 272 202 195 190 247 255 245 246 258 284 287 272 268 274 284
268 269 271 277 276 270 264 259 283 312 274 290 338 344 341 333 317 3 40 300 288 111 96 284 139 86 312 38 62 99 206 293 44 342 335 35 314 42 350 228 194 215 182 146 246 251 147 183 201 169 123 150 203 226 175 156 188 255 228 158 174 196 203 153 154 196 244 336 303 218 143 240 277 281 71 98 185 242 254 252 265 292 295 277 271 272 278 303
270 269 270 278 278 265 258 252 247 249 256 272 331 338 340 328 323 58 87 252 283 71 69 58 123 352 352 38 24 39 353 349 89 289 332 58 33 65 181 223 168 211 241 179 234 263 158 210 190 150 140 200 211 196 162 163 197 229 113 91 74 75 79 103 140 142 79 312 260 196 160 202 276 280 70 73 221 238 256 265 279 287 274 267 269 277 299 351
267 265 266 266 257 249 245 244 244 238 243 248 293 343 343 330 14 74 225 241 343 332 207 94 214 317 42 66 342 333 311 294 55 357 4 67 349 28 140 204 121 163 268 266 257 259 248 99 148 159 178 191 159 112 174 172 175 145 97 58 27 29 33 53 70 93 85 278 236 181 182 179 280 288 124 162 218 214 255 287 292 289 283 277 275 288 341 23
263 258 253 246 242 235 221 251 254 232 223 228 225 18 358 359 82 202 235 238 7 289 45 49 330 21 64 98 299 305 249 271 40 89 49 67 21 26 25 280 82 67 317 299 280 273 259 177 208 226 188 145 124 113 339 113 132 124 88 63 5 329 6 28 353 52 152 261 238 184 183 175 236 267 189 239 244 210 230 271 286 294 300 293 291 314 37 43
267 259 246 241 242 234 221 244 271 215 213 209 143 62 44 6 252 223 248 1 341 277 75 83 303 71 84 76 278 261 225 277 149 118 132 121 128 173 202 206 172 318 300 246 276 306 267 215 212 238 204 159 140 145 340 22 119 129 114 121 297 310 344 351 313 83 202 258 262 192 176 195 243 257 271 270 272 258 234 226 242 265 283 291 302 322 16 21
275 269 256 248 239 230 225 221 173 189 193 179 146 58 86 247 255 203 168 296 253 269 75 120 129 147 149 3 271 221 170 226 188 154 158 138 160 234 235 214 177 225 272 242 312 314 284 259 178 155 251 184 154 175 237 228 165 159 158 160 170 200 257 263 260 266 258 272 286 207 176 255 274 277 246 245 262 272 246 220 232 250 269 282 296 309 327 334
279 277 268 258 243 234 231 228 226 199 164 149 111 58 132 232 250 117 163 234 251 318 325 127 77 291 194 235 245 197 224 246 160 139 178 129 142 253 251 231 193 181 235 264 297 247 257 281 209 171 244 183 178 198 193 140 158 178 164 146 170 185 190 224 233 251 266 277 310 248 191 221 266 276 233 234 264 299 285 260 270 267 264 280 293 300 320 332
277 277 275 264 248 237 230 228 226 195 159 132 88 147 207 236 252 245 227 232 263 295 294 131 100 295 269 251 258 221 225 247 125 122 179 170 187 217 218 218 193 165 159 220 249 166 228 268 256 228 225 162 185 239 95 103 146 211 128 112 216 202 176 238 257 243 255 293 289 237 226 226 248 278 272 260 276 293 299 308 314 290 277 303 307 303 320 316
277 278 276 258 245 236 224 221 213 189 167 127 114 212 227 233 218 213 216 195 192 204 309 310 212 247 279 268 271 267 218 228 169 146 200 199 211 220 218 228 186 172 175 188 217 201 244 273 290 5 351 167 178 293 70 132 204 168 118 192 227 175 144 236 281 287 109 263 253 238 256 275 292 289 303 11 327 311 324 331 322 298 309 1 324 310 318 311
283 278 267 247 243 234 220 214 202 186 169 135 203 222 230 224 203 198 185 152 172 143 121 270 226 204 251 263 268 270 144 232 210 177 210 225 234 206 207 254 199 186 198 188 196 240 246 277 267 179 215 234 171 141 72 148 155 140 174 223 222 143 128 151 264 309 246 250 249 240 256 275 291 279 313 13 338 325 330 328 329 325 345 1 322 305 299 295
292 284 267 256 248 234 218 207 191 177 155 162 228 234 224 213 211 190 172 162 194 169 183 236 237 211 224 245 259 210 175 212 192 171 206 224 234 180 167 239 210 192 215 177 154 257 211 276 273 185 178 267 61 106 297 298 147 153 211 238 108 219 243 149 174 236 244 250 250 229 246 260 257 260 279 298 296 306 323 325 320 311 320 326 315 316 318 313
281 286 273 270 250 227 208 192 177 166 161 201 229 237 219 223 225 189 179 179 158 188 216 237 241 252 249 226 231 228 196 197 179 189 211 216 235 190 153 230 210 200 247 171 168 234 127 229 268 140 139 317 21 112 216 251 256 117 264 311 102 187 206 189 185 196 244 257 260 244 240 242 238 258 276 265 246 291 314 306 281 275 285 300 311 320 325 326
190 191 267 321 249 201 189 176 165 171 206 213 229 235 214 245 244 216 201 200 201 209 224 233 221 238 257 234 221 248 236 201 193 210 220 222 247 234 189 199 150 146 290 124 171 216 136 219 248 268 132 248 267 221 197 196 196 151 181 237 224 210 214 264 237 178 240 258 260 255 246 237 235 269 278 257 208 247 284 271 259 275 296 304 305 301 308 332
153 127 270 343 150 172 168 163 175 199 205 227 242 241 250 264 264 281 242 201 217 243 222 213 215 234 259 261 247 228 206 221 214 214 232 235 242 251 238 186 158 153 90 64 159 226 180 223 242 260 262 248 240 219 186 184 178 164 187 206 213 224 246 276 256 210 212 240 246 256 256 246 250 285 287 281 267 262 256 245 272 309 322 322 326 335 349 5
195 168 328 353 168 166 160 178 213 195 209 226 239 238 250 262 252 262 247 200 214 253 283 236 230 239 251 257 257 225 193 227 214 210 241 232 223 233 228 176 152 145 127 141 212 216 159 170 224 239 245 251 255 241 199 192 185 175 216 212 211 212 207 240 253 240 235 250 256 264 263 242 220 255 272 276 281 285 253 225 294 317 322 333 347 359 11 19
205 232 339 340 175 170 162 226 212 216 231 240 293 270 241 263 256 241 219 210 215 230 259 250 237 242 236 236 245 226 206 220 211 218 239 233 230 236 222 186 130 109 149 252 240 225 133 144 230 249 250 261 270 270 244 179 172 256 254 222 212 222 227 240 252 265 261 257 260 264 262 238 204 236 255 267 283 297 281 275 333 346 354 5 10 12 16 16
321 279 321 257 191 186 190 216 214 230 230 243 268 255 248 247 246 253 249 224 198 213 243 245 245 252 236 225 234 225 220 228 228 232 231 217 243 275 8 23 36 122 218 270 257 242 239 198 209 273 279 278 285 288 302 354 165 230 249 241 231 235 249 263 275 285 264 247 245 256 262 256 235 261 279 290 296 300 314 3 31 36 32 27 21 15 13 11
342 272 270 284 247 236 245 225 229 234 231 243 245 246 256 248 229 246 252 242 214 211 251 266 272 301 277 267 282 259 234 230 243 253 240 218 257 341 18 11 28 118 254 16 19 246 251 225 209 243 259 260 267 262 251 228 174 182 241 245 239 231 234 248 260 253 250 240 236 249 263 263 276 322 315 308 310 318 349 28 41 37 31 29 21 16 14 14
2 302 283 308 303 273 260 293 298 220 228 248 244 243 247 248 250 223 221 239 233 219 242 264 263 336 277 253 265 270 249 225 226 262 297 281 269 311 349 11 39 17 2 31 21 320 257 249 236 240 246 253 263 263 265 278 266 264 265 249 245 240 228 230 242 243 252 257 245 248 265 268 276 316 319 330 348 356 15 33 35 30 26 23 16 14 17 18
45 235 222 314 323 279 260 300 310 251 265 261 242 242 245 251 272 247 207 234 240 221 245 250 229 225 229 232 244 253 249 234 231 243 252 256 266 300 326 47 51 10 14 35 9 15 112 273 255 251 255 256 265 275 283 289 283 277 280 274 270 272 260 248 250 250 256 265 258 258 280 286 287 302 328 5 15 17 27 26 27 33 24 16 17 15 15 14
301 247 257 295 291 258 249 297 330 322 306 296 287 287 270 263 267 263 255 290 309 258 248 258 243 232 234 246 252 249 249 246 244 239 236 254 320 323 338 17 44 17 31 21 351 60 151 264 253 257 266 269 279 288 288 286 284 280 281 280 277 279 275 264 262 263 263 263 265 275 283 282 284 303 29 48 29 30 44 27 20 29 21 21 25 19 16 10
18 297 303 322 282 272 312 328 339 335 304 298 302 268 267 267 263 263 269 294 294 256 217 239 248 229 233 255 256 246 258 263 265 252 202 57 358 264 328 326 302 34 36 11 343 16 232 264 258 264 283 294 290 289 286 284 285 281 274 272 276 276 271 267 270 274 270 265 266 270 271 271 286 20 54 54 37 51 74 43 27 30 21 21 22 18 15 7
37 240 314 351 304 275 346 335 317 321 297 273 255 245 254 261 268 277 275 257 262 253 223 244 258 248 105 106 173 248 272 302 297 285 111 93 318 109 311 267 283 360 1 352 322 282 258 287 323 319 310 297 285 279 277 277 279 281 281 278 273 269 267 269 272 269 265 266 268 270 268 267 41 59 15 16 25 22 60 46 36 33 22 19 20 14 7 358
283 343 29 13 296 251 129 80 345 301 275 244 239 254 259 258 278 317 317 288 287 297 70 358 329 353 38 73 80 262 350 59 49 359 48 67 265 334 326 255 321 339 326 290 272 290 274 302 331 321 294 280 281 281 283 289 289 281 274 267 263 263 266 266 262 259 261 266 275 278 270 262 51 28 350 2 3 1 23 33 33 34 23 20 17 5 356 350
199 318 125 125 282 262 174 96 174 225 250 248 272 331 288 276 4 356 311 40 72 79 71 42 360 359 349 317 332 97 129 115 164 215 235 231 236 240 233 238 254 263 267 271 270 244 246 268 296 285 277 274 274 279 298 320 304 275 259 253 254 258 264 263 260 268 287 259 266 272 253 211 283 318 357 354 349 7 3 336 183 157 2 14 15 356 342 331